Regional Weather Roundup
Issued by NWS

Home | Current Version | Previous Version | Text Only | Print | Product List | Glossary On
Versions: 1 2 3 4 5 6 7 8 9 10 11 12 13 14 15 16 17 18 19 20 21 22 23 24 25 26 27 28 29 30 31 32 33 34 35 36 37 38 39 40 41 42 43 44 45 46 47 48 49 50
000
ASUS45 KTFX 161310
RWRMT
MONTANA REGIONAL WEATHER ROUNDUP
NATIONAL WEATHER SERVICE GREAT FALLS MT
600 AM MST TUE JAN 16 2018

NOTE: "FAIR" INDICATES FEW OR NO CLOUDS BELOW 12000 FEET WITH NO
SIGNIFICANT WEATHER AND/OR OBSTRUCTIONS TO VISIBILITY.

MTZ001>007-043-161400-
WEST OF THE DIVIDE

CITY           SKY/WX    TMP DP  RH WIND       PRES   REMARKS
KALISPELL      CLOUDY    14  11  87 CALM      30.26R
MISSOULA       FAIR      23  19  85 VRB3      30.25S
BUTTE          MOCLDY     5   1  83 SE5       30.25F
MULLAN PASS    FOG       26  23  88 S9        30.11F VSB 1/2 WCI  17
ANACONDA         N/A     18  14  86 SW7       30.24F WCI   8
DEER LODGE       N/A     19  18  93 SE6       30.25F WCI  11
EUREKA           N/A     28  27  93 MISG      30.27F
HAMILTON         N/A     25  21  86 CALM      30.23S
RONAN            N/A     30  28  93 CALM      30.26S
$$

MTZ008-052>055-161400-
SOUTHWEST MONTANA

CITY           SKY/WX    TMP DP  RH WIND       PRES   REMARKS
BOZEMAN        CLOUDY     5   3  91 CALM      30.32S FOG
DILLON         FAIR      17  13  84 S7        30.30S WCI   8
ENNIS          CLEAR     14   9  79 S8        30.32S WCI   3
W YELLOWSTONE  CLOUDY   -17 -20  83 CALM      30.36S HAZE
THREE FORKS      N/A     11   8  87 CALM      30.26F
$$

MTZ009-010-012-014-046-048-049-054-161400-
EAST SLOPES AND CENTRAL MONTANA

CITY           SKY/WX    TMP DP  RH WIND       PRES   REMARKS
CUT BANK       FOG        1  -1  91 SE5       30.11F VSB 1/2
GREAT FALLS    FAIR      26  11  52 S13       30.14F WCI  15
MALMSTROM AFB  FAIR      -3  -6  90 CALM      30.17F
HELENA         FOG        4   3  96 CALM      30.31F VSB 1/2
AUGUSTA        FAIR      18  18 100 SW7       30.12F WCI   8
BOWMANS CRNR   FAIR      24  19  81 S31       30.10F WCI   6
CHOTEAU          N/A     19  16  86 S6        30.13S WCI  11
FAIRFIELD      FAIR      25  17  71 S6        30.12F WCI  18
POWER          FAIR      12   7  81 S8        30.13F WCI   1
ULM            FAIR      25  14  63 S12       30.15F WCI  14
WHITE SULPHUR  FOG        3   1  92 NE5       30.26F VSB 0
$$

MTZ011-013-016-021-045-047-050-051-161400-
NORTH CENTRAL MONTANA

CITY           SKY/WX    TMP DP  RH WIND       PRES   REMARKS
HAVRE          FAIR     -28 -33  77 NW5       30.29F
LEWISTOWN      FAIR      11   2  67 SE7       30.16F WCI   0
N BAR RANCH    FAIR      10  -2  56 CALM      30.22F
CHINOOK          N/A    -26 -29  83 W5        30.32F
DENTON         FAIR      14  -1  52 MISG      30.15F
GRASS RANGE    FAIR      18  -3  38 W5        30.14F
STANFORD       FAIR      23   5  45 W5        30.13F
WINIFRED         N/A      1  -8  66 CALM      30.17F
$$

MTZ017>020-022>027-061-062-161400-
NORTHEAST MONTANA

CITY           SKY/WX    TMP DP  RH WIND       PRES   REMARKS
GLASGOW        FAIR     N/A N/A N/A E18       30.38F
GLENDIVE       FAIR     -13 -19  75 SW3       30.49F
MALTA          CLEAR     -6 -11  77 E10       30.34F WCI -23
SIDNEY         FAIR     -17 -22  78 S10       30.52F WCI -37
WOLF POINT     FAIR     -20 -27  70 NE5       30.48F
PLENTYWOOD       N/A    -15 -20  76 CALM      30.45F
POPLAR           N/A    -20 -26  76 CALM      30.49F
SCOBEY           N/A    -13 -23  61 S3        30.33F
$$

MTZ028>42-056>058-161400-
SOUTHCENTRAL AND SOUTHEAST MONTANA

CITY           SKY/WX    TMP DP  RH WIND       PRES   REMARKS
BAKER          FAIR     -15 -20  78 SE10      30.47F WCI -35
BILLINGS       FAIR       1  -3  83 S5        30.33F
LIVINGSTON     FAIR      11   9  92 N18       30.27F WCI  -7
MILES CITY     FAIR     -14 -18  82 E3        30.46F
BIG TIMBER     CLEAR     10   7  85 S5        30.31F
EKALAKA          N/A      6 -10  47 E12       30.33F WCI  -9
FORSYTH          N/A    -22 -27  76 CALM      30.44F
HARLOWTON      FOG        3   0  87 N3        30.27F VSB 3/8
LAUREL           N/A     -4  -9  77 CALM      30.35F
$$

REGIONAL REPORTS...DAKOTAS

CITY           SKY/WX    TMP DP  RH WIND       PRES   REMARKS
WILLISTON      FAIR     -10 -15  78 S6        30.52F WCI -23
MINOT          FAIR      -1 -12  59 S13       30.56F WCI -19
DICKINSON      FAIR     -12 -19  71 S9        30.49F WCI -30
BEACH          FAIR      -9 -17  70 S10       30.51F WCI -28
CROSBY         FAIR      -4 -13  65 SW17G24   30.49F WCI -26
TIOGA          FAIR      -8 -13  77 CALM      30.51F
WATFORD CITY   FAIR     -20 -26  76 CALM      30.53F
BISMARCK       FAIR     -23 -28  78 CALM      30.70F
GRAND FORKS    FAIR     -17 -23  73 S5        30.75F
FARGO          FAIR     -15 -21  74 W5        30.78F
BUFFALO SD       N/A    -10 -16  74 S7        30.42F WCI -25
RAPID CITY     FAIR     -11 -16  78 SE5       30.56S
$$

REGIONAL REPORTS...WYOMING/IDAHO/WASHINGTON

CITY           SKY/WX    TMP DP  RH WIND       PRES   REMARKS
GILLETTE         N/A    N/A N/A N/A MISG      30.37F
SHERIDAN       FAIR     -11 -16  78 CALM      30.35F
BUFFALO WY     FAIR      11  -6  46 S3        30.30F
CODY           LGT SNOW   7   3  85 CALM      30.33  VSB 3/4
YELLOWSTONE LA   N/A    -12 -17  78 CALM      30.35F
IDAHO FALLS    FAIR      20  19  96 CALM      30.35S
SALMON         CLOUDY    28  23  81 SW8       30.37S WCI  20
BOISE          FAIR      34  27  75 CALM      30.20R
SPOKANE        MOCLDY    32  30  92 NE9       30.10S WCI  24
$$

REGIONAL REPORTS...ALBERTA

CITY           SKY/WX    TMP DP  RH WIND       PRES   REMARKS
CALGARY        CLEAR     21  16  79 SW3       29.94F
CARDSTON         N/A     23  14  68 MISG        N/A
EDMONTON       CLEAR      5   1  85 S3        29.95F
FORT MCMURRAY  CLEAR     -2  -6  84 SE8       29.99F WCI -17
HIGH LEVEL     CLEAR     -2  -6  84 SE2       29.85F
LETHBRIDGE     CLEAR     21  12  68 S9G25     30.01F WCI  11
LLOYDMINSTER   CLEAR      0  -8  71 S10       30.06F WCI -17
MEDICINE HAT   CLEAR     21   7  53 SW12      30.10F WCI   9
PEACE RIVER    CLEAR      1  -2  85 SW5       29.88F
PINCHER CREEK  CLEAR     32  23  69 W16G23    30.03F WCI  21
WATERTON GATE    N/A     43  23  45 SW24G33     N/A
$$

REGIONAL REPORTS...SASKATCHEWAN

CITY           SKY/WX    TMP DP  RH WIND       PRES   REMARKS
CORONACH         N/A     -8 -15  71 S8          N/A  WCI -23
CYPRESS HILLS    N/A     12 -11  34 SW10        N/A  WCI  -1
ESTEVAN        CLOUDY    -2  -9  71 S6        30.51F WCI -14
MOOSE JAW        N/A      0 -11  60 SE10        N/A  WCI -17
PRINCE ALBERT  CLEAR    -15 -20  76 VRB2      30.29F
REGINA         CLEAR     -4  -9  77 SE16      30.39F WCI -25
ROCKGLEN         N/A      3  -8  60 S15         N/A  WCI -15
SASKATOON      CLEAR      0  -8  71 S13       30.27F WCI -18
SWIFT CURRENT  CLEAR      5  -4  66 S26G37    30.14F WCI -18
VAL MARIE        N/A     -9 -15  77 S1          N/A
$$



USA.gov is the U.S. government's official web portal to all federal, state and local government web resources and services.